Location: Newark
(47.5347°N, 5.5339°E)
Time: 11:47:25
(UTC+00:00)

ISS - Pass Details

Date: 29 September 2019
Orbit: 411 x 421 km, 51.6° (Epoch: 16 October)

Event Time Altitude Azimuth Distance (km) Brightness Sun altitude
Rises 18:32:39 0° 281° (W) 2,345 2.2 -12.7°
Reaches altitude 10° 18:34:50 10° 290° (WNW) 1,482 0.5 -13.0°
Maximum altitude 18:37:58 38° 0° (N) 643 -2.8 -13.6°
Enters shadow 18:39:50 20° 60° (ENE) 1,023 -2.2 -13.9°
